Wind_Speed
16 11 10 11 9 9 12 13 10 9 8 8 9 9 9 7 6 4 4 3 1 5 6 4 4 5 4 6 7 5 5 8 7 9 9 7 8 6 9 8 12 13 12 12 13 14 15 7 6 7 5 2 5 5
17 14 12 10 10 11 13 13 9 8 8 8 8 7 8 7 7 5 3 6 4 5 6 6 7 11 11 4 3 4 5 1 5 5 3 4 5 4 11 10 5 7 4 6 7 8 6 3 2 2 3 3 6 5
18 15 14 12 11 10 12 11 9 8 8 8 7 6 6 7 8 6 3 4 4 5 7 3 4 3 10 19 9 5 4 1 2 2 5 3 5 3 7 11 3 4 2 6 2 7 3 2 1 1 2 2 3 2
18 15 14 13 11 10 11 10 9 8 8 7 7 6 6 6 6 5 2 3 3 4 5 4 2 3 3 8 19 14 1 1 1 2 4 3 5 1 2 4 6 5 2 4 6 4 3 3 2 2 2 3 2 2
17 16 14 14 12 11 11 11 10 8 8 7 7 7 6 5 4 1 3 3 4 1 5 1 0 1 1 3 9 15 14 7 4 4 3 2 3 4 5 3 7 1 3 5 1 8 5 7 4 2 2 2 3 5
19 16 15 14 14 13 12 12 10 8 7 7 7 7 6 5 2 2 2 4 3 4 4 2 0 2 1 4 8 10 11 10 8 5 2 3 0 5 4 6 5 5 4 5 6 10 4 3 3 3 1 1 3 4
19 18 15 13 13 12 12 10 8 7 7 7 7 7 6 4 3 2 1 2 2 3 3 3 5 3 4 5 6 7 9 7 9 8 7 6 6 4 5 8 5 4 6 6 5 5 2 2 2 3 2 2 5 3
19 18 16 14 12 10 9 8 7 7 6 6 5 5 3 3 5 3 1 1 2 2 3 3 2 7 3 6 6 6 7 8 9 9 4 9 7 7 5 8 5 8 9 4 5 5 5 4 3 1 1 2 5 7
19 17 16 15 11 10 8 7 6 6 5 3 2 3 4 2 3 3 2 1 2 2 4 2 3 3 2 3 3 5 6 6 4 8 11 7 7 6 5 7 5 5 5 8 10 8 5 3 1 1 1 2 4 7
21 20 17 16 13 11 7 6 5 5 3 3 7 1 4 3 3 3 1 1 2 4 4 4 1 2 3 3 5 4 6 4 3 5 4 5 10 12 8 6 7 7 8 8 7 6 4 5 1 1 1 2 4 7
22 19 18 17 13 10 7 5 4 2 5 5 4 2 3 4 2 2 3 4 3 3 6 4 2 2 1 3 0 2 2 2 3 4 4 3 5 12 9 7 7 8 9 10 10 9 9 9 8 5 4 4 5 7
23 19 18 15 12 10 7 5 3 5 5 7 5 4 4 3 3 3 3 3 4 2 5 4 3 2 0 1 4 3 3 2 4 5 3 3 4 7 3 6 7 8 10 12 13 14 12 11 11 9 8 7 8 7
22 19 16 14 13 10 7 5 4 6 6 6 2 3 4 3 2 5 6 3 2 2 1 1 3 2 3 5 4 3 4 5 2 3 3 4 7 3 6 10 11 11 12 12 13 14 14 14 12 13 12 9 11 10
22 19 16 15 13 10 8 6 5 7 4 3 4 1 4 4 4 1 3 3 3 2 2 2 3 2 0 3 2 3 3 3 3 4 3 3 10 13 14 13 14 14 13 14 14 14 13 14 14 13 14 12 13 13
21 17 15 14 12 10 8 6 7 9 2 3 3 3 5 0 2 1 2 3 4 1 2 4 4 3 3 3 3 3 3 3 2 1 2 9 15 21 22 18 16 14 14 14 13 13 12 12 12 12 13 12 13 14
19 16 14 14 12 10 8 7 8 4 2 2 3 3 3 4 4 3 5 3 2 2 1 2 2 2 3 3 3 4 3 1 1 3 12 15 21 22 18 16 15 15 15 15 14 9 8 8 12 13 12 12 13 16
18 6 17 15 12 10 9 8 3 3 2 3 4 3 3 1 3 2 3 3 4 4 0 3 2 3 3 3 3 3 1 1 8 12 15 18 23 22 18 12 13 12 9 8 7 10 12 14 14 14 14 12 13 19
7 15 15 14 12 10 8 3 2 2 3 2 1 3 2 2 3 3 3 5 5 4 4 2 3 4 3 3 2 1 5 8 12 13 19 20 17 15 9 7 4 3 7 13 16 17 16 16 17 16 13 15 17 19
14 15 16 14 12 4 2 2 2 1 2 1 2 0 0 1 1 2 3 4 5 4 3 3 4 3 3 4 9 12 13 16 16 22 15 11 10 5 3 7 11 16 20 21 19 18 18 20 22 20 19 19 21 18
17 16 14 9 5 1 1 2 2 1 3 3 3 2 2 2 2 3 4 6 6 5 4 4 3 5 5 8 10 14 16 21 17 13 6 5 4 4 9 13 18 21 19 18 18 17 16 16 16 16 15 14 18 20
14 10 7 6 2 0 0 1 2 0 0 2 2 3 3 3 2 3 4 6 4 3 2 4 6 8 9 13 14 15 10 7 5 2 3 6 9 12 15 17 17 17 22 24 24 23 23 25 24 24 24 21 21 26
7 6 5 3 1 0 0 1 1 0 2 1 2 3 2 2 2 2 8 2 3 3 4 8 13 17 14 6 1 2 2 1 5 7 8 14 18 20 22 24 25 25 24 24 24 24 25 27 29 27 30 30 27 27
4 3 2 1 0 1 1 1 1 1 2 2 2 1 1 2 3 5 2 3 5 8 12 9 2 4 8 5 3 5 6 9 12 14 15 21 21 23 26 27 28 29 30 28 28 28 29 30 31 31 31 31 29 27
1 1 0 1 1 1 2 1 1 1 1 0 1 1 2 3 5 2 1 4 11 6 8 10 10 10 12 15 17 14 15 17 23 25 25 29 29 27 26 24 21 21 21 21 25 24 23 25 22 19 21 22 20 19
1 1 1 1 1 1 1 1 0 0 0 1 0 0 0 1 1 2 3 8 11 13 16 12 17 19 18 21 22 21 23 26 26 26 22 19 20 19 19 19 19 19 18 19 17 17 16 16 18 20 18 17 15 14
1 1 1 1 1 1 1 1 2 1 1 2 1 1 1 2 3 2 4 9 13 17 13 17 19 23 23 22 21 21 19 18 22 25 23 16 17 19 20 20 20 18 17 16 16 15 14 13 13 13 13 12 11 10
2 1 0 1 2 2 1 2 2 2 2 2 2 3 2 4 4 5 7 17 19 15 14 15 19 24 26 24 21 23 22 20 21 20 16 14 15 14 14 15 16 14 12 11 11 12 13 13 13 12 12 10 9 8
2 3 2 3 2 3 1 2 1 2 3 1 1 2 3 2 3 4 19 18 16 13 15 17 15 19 17 14 14 16 17 15 15 14 14 14 13 13 13 12 12 12 10 11 11 11 11 11 10 9 8 6 5 4
1 3 2 3 3 2 4 3 4 6 9 1 6 7 12 12 11 9 7 8 9 10 12 16 18 18 18 17 12 10 10 9 10 11 11 12 11 11 11 10 10 10 9 9 9 8 7 6 5 4 4 5 4 2
1 2 1 3 4 3 6 14 19 8 7 10 11 14 12 9 13 14 13 10 12 13 13 13 12 11 11 10 10 11 11 10 9 9 11 11 11 9 8 7 6 5 4 3 2 1 1 1 1 1 2 2 2 2
5 5 10 16 17 18 15 13 12 13 15 17 15 16 14 10 8 6 5 6 7 8 9 10 11 10 9 9 9 9 9 8 8 9 9 8 6 5 4 4 3 2 2 2 1 2 2 2 1 2 2 2 2 1
20 19 20 18 15 12 12 13 15 15 16 15 15 14 13 13 12 9 7 8 8 7 7 8 8 8 7 7 6 7 8 7 6 6 6 5 4 4 3 2 2 2 2 2 2 2 2 2 1 1 1 1 1 1
18 17 14 14 12 10 9 10 11 10 9 8 6 6 5 4 5 7 6 6 7 8 8 9 10 9 8 8 8 8 8 7 5 4 3 2 2 2 3 2 2 2 2 2 2 1 1 1 1 1 1 2 2 2
Wind_Direction
296 299 288 295 291 307 320 326 327 331 335 331 338 347 350 355 3 11 299 298 339 280 278 243 233 226 202 230 248 88 227 199 240 239 238 228 252 193 245 240 209 203 205 216 233 237 234 143 141 238 22 43 25 21
290 285 274 272 285 296 310 318 319 317 325 332 330 342 343 346 347 355 336 322 287 256 274 264 237 239 231 231 275 202 351 20 1 262 246 309 217 227 238 219 181 242 264 252 232 229 97 147 24 27 347 326 360 7
274 275 261 264 279 281 298 305 312 306 312 317 318 327 340 345 342 347 332 342 340 293 281 257 240 231 236 223 210 254 162 45 174 317 329 296 269 304 224 232 265 185 262 252 248 164 154 126 99 14 356 335 326 342
258 260 259 257 267 280 296 297 305 300 302 308 308 313 324 340 340 345 22 328 1 299 279 120 295 287 255 209 211 214 10 353 305 280 255 277 264 18 258 353 265 27 158 216 229 120 238 149 52 37 33 50 59 118
243 252 253 249 253 269 288 293 293 293 291 299 303 305 313 327 337 11 23 40 36 337 326 325 145 168 209 169 190 208 221 238 292 250 242 244 285 270 212 282 239 344 26 257 25 31 328 58 25 31 41 56 112 130
237 245 251 247 244 261 277 287 284 279 282 291 297 299 300 311 338 103 228 331 360 344 288 234 142 158 260 211 191 195 206 219 236 277 250 245 220 279 260 240 75 80 17 350 335 330 324 339 39 30 26 156 145 151
236 235 240 240 240 257 273 275 273 269 277 287 291 288 284 284 182 177 9 218 342 349 278 256 174 169 164 140 153 168 189 205 215 233 240 253 215 244 262 253 124 323 332 337 334 342 165 40 22 40 45 93 171 187
230 223 232 229 239 259 265 267 261 265 275 285 288 281 240 160 137 101 249 320 309 292 265 275 167 183 192 193 156 180 183 202 209 246 223 246 188 235 256 253 273 309 314 302 358 322 282 306 338 360 100 139 144 139
219 216 223 221 231 254 256 258 255 261 271 267 256 160 132 145 199 217 249 296 219 208 293 240 261 127 184 188 168 181 206 216 203 236 237 236 234 222 245 252 266 322 327 303 308 314 264 260 328 301 215 190 186 165
209 210 217 213 225 242 244 250 252 260 252 181 157 193 193 195 195 131 37 169 231 217 238 259 231 188 257 199 175 199 192 230 245 209 215 240 244 241 213 240 270 288 297 304 304 286 211 217 60 340 273 209 192 175
204 206 208 208 222 224 230 238 243 249 163 156 183 194 212 183 156 210 235 231 168 235 211 216 246 302 111 282 177 203 318 210 253 151 240 244 240 182 206 253 280 280 276 278 276 273 273 266 280 289 287 223 187 182
196 198 201 205 214 207 216 217 212 176 185 182 169 159 163 198 202 228 229 178 221 232 166 206 146 246 200 254 251 184 260 247 257 145 240 243 103 121 215 272 297 308 285 273 273 272 271 266 259 263 255 229 209 184
183 188 192 203 194 200 203 198 190 178 163 148 158 183 203 177 229 222 187 179 207 171 80 139 173 252 195 231 243 213 228 235 51 222 219 42 72 1 320 316 311 299 294 283 275 268 262 257 254 253 244 230 217 196
176 181 191 188 186 190 189 185 175 159 145 197 187 219 230 186 231 162 122 104 248 221 356 354 237 268 144 240 258 246 238 250 242 239 66 6 335 319 308 306 301 294 296 288 279 274 263 251 249 251 224 215 205 196
168 174 174 174 177 180 177 173 164 160 176 215 217 225 202 279 177 133 69 166 140 230 253 228 229 261 211 267 223 282 247 240 8 320 287 302 314 313 304 300 297 290 295 289 284 272 262 254 241 210 203 201 196 192
156 157 173 170 171 169 163 160 155 160 225 231 236 240 169 196 119 154 156 167 42 9 229 272 265 217 255 297 259 233 229 297 90 240 288 313 310 313 307 297 285 288 291 284 281 271 249 203 183 180 176 172 178 174
146 151 165 164 161 154 153 140 159 215 225 228 189 198 275 222 119 160 96 43 358 290 96 280 243 226 277 241 246 250 340 127 318 310 311 311 312 312 308 293 289 289 275 252 190 174 160 151 154 157 157 160 158 160
134 152 152 148 142 140 139 139 199 219 225 190 231 99 129 153 163 130 65 12 345 331 292 333 314 233 232 236 285 31 320 315 312 321 314 319 319 318 287 268 232 201 151 131 126 123 124 128 123 118 130 142 152 157
136 140 139 140 136 136 166 200 177 236 76 82 112 133 158 110 49 353 333 323 313 287 270 244 261 248 265 335 330 322 324 320 317 315 324 324 323 336 72 116 123 125 116 116 113 111 113 114 110 109 121 124 123 131
126 128 128 129 136 133 176 185 173 250 199 126 185 207 279 285 306 307 306 301 294 272 226 213 244 324 321 310 308 305 304 308 315 317 359 1 11 87 108 116 118 121 113 106 107 113 118 123 119 118 116 116 129 126
122 124 117 116 83 107 219 164 184 282 160 221 246 282 275 270 304 332 316 314 240 227 270 266 282 295 297 298 295 296 307 320 329 38 85 94 96 106 117 120 125 124 118 113 109 109 116 121 122 118 119 124 122 118
124 111 95 65 89 342 110 21 6 308 260 281 289 322 305 342 342 342 317 275 261 258 259 282 288 296 301 306 349 345 330 75 87 98 111 116 106 103 104 109 110 108 106 107 109 113 116 117 115 110 113 111 110 112
105 83 57 30 224 168 138 94 230 335 272 39 332 289 1 345 316 330 261 279 273 292 300 292 327 117 103 100 87 113 119 109 112 114 111 106 104 106 109 103 99 103 104 100 105 107 110 111 111 112 114 114 112 110
65 88 212 196 217 157 157 97 43 344 302 236 274 289 358 320 348 358 308 299 334 36 104 115 119 118 124 114 113 113 109 109 108 105 107 108 106 101 97 97 96 101 102 101 103 109 114 111 108 111 116 115 111 110
224 140 222 248 217 160 140 173 299 235 181 75 334 4 218 344 41 17 335 339 52 83 95 105 104 105 103 94 106 108 112 111 109 108 107 105 102 100 94 87 85 93 104 110 106 106 109 109 109 113 114 111 111 110
178 131 36 123 168 183 188 192 213 200 207 156 60 355 326 72 39 15 320 351 74 86 91 101 104 107 107 117 105 106 106 109 111 109 102 89 99 97 99 96 93 93 103 102 104 103 103 105 110 117 122 120 116 110
179 200 155 154 161 159 200 228 240 261 75 59 9 351 34 56 16 318 25 90 100 106 92 103 111 105 110 108 106 110 109 108 107 104 97 95 99 92 96 98 99 98 88 90 99 103 106 107 111 114 115 114 113 116
181 180 165 170 181 188 259 200 41 55 70 54 278 346 56 88 32 73 108 101 107 84 91 106 117 126 114 104 110 113 111 106 105 101 99 94 90 90 92 96 99 108 110 111 102 104 105 107 109 114 119 117 111 110
96 143 131 153 147 171 12 29 74 90 121 41 78 75 92 96 118 127 116 111 99 103 106 102 102 111 111 108 98 94 96 108 114 113 108 104 100 95 96 96 96 99 97 102 111 115 128 125 127 134 137 149 166 206
126 184 211 58 48 70 83 113 118 101 82 87 97 100 98 100 120 122 114 102 103 104 111 112 112 112 112 114 115 112 110 105 107 106 108 107 109 107 104 101 100 103 107 107 112 146 200 184 196 176 127 131 132 121
144 148 108 109 114 106 107 106 104 105 102 104 110 110 112 119 117 118 123 125 128 127 127 122 119 117 113 114 120 123 114 104 107 107 112 112 112 111 107 94 84 95 118 141 158 166 146 143 150 137 147 166 241 215
95 105 110 120 111 109 98 95 106 102 110 109 111 111 115 112 104 103 110 108 119 131 141 141 142 137 131 126 128 129 130 128 120 115 110 117 112 99 84 74 68 88 100 113 125 137 136 145 168 177 209 220 244 230
94 103 112 117 116 106 103 106 108 110 116 116 110 111 104 97 117 141 158 132 117 117 122 131 139 139 129 113 124 128 133 135 131 124 119 123 123 105 79 55 54 73 83 107 123 126 123 140 188 198 191 193 204 222
Height
1533 1532 1531 1530 1529 1528 1526 1524 1522 1521 1519 1517 1515 1513 1512 1510 1510 1509 1510 1508 1510 1509 1505 1505 1505 1505 1504 1503 1497 1502 1503 1500 1499 1495 1486 1478 1479 1471 1476 1469 1471 1478 1484 1481 1481 1484 1492 1475 1479 1481 1482 1482 1483 1484
1528 1528 1528 1527 1526 1525 1524 1522 1521 1519 1518 1517 1515 1513 1511 1510 1510 1509 1512 1508 1508 1509 1505 1501 1501 1501 1504 1506 1505 1505 1502 1501 1496 1493 1486 1481 1482 1479 1476 1476 1478 1482 1469 1469 1470 1470 1476 1480 1480 1483 1485 1486 1486 1487
1524 1524 1524 1524 1523 1523 1522 1520 1519 1518 1516 1515 1514 1513 1511 1510 1509 1508 1508 1507 1507 1507 1503 1501 1500 1499 1498 1501 1505 1504 1504 1505 1504 1504 1496 1490 1490 1486 1476 1475 1474 1477 1480 1474 1477 1475 1477 1480 1483 1484 1485 1485 1486 1487
1518 1519 1519 1520 1520 1520 1518 1517 1517 1515 1515 1514 1513 1512 1511 1510 1509 1508 1508 1508 1508 1509 1503 1498 1497 1498 1496 1497 1499 1504 1505 1505 1505 1504 1498 1492 1487 1492 1477 1479 1479 1474 1480 1474 1473 1477 1479 1481 1484 1485 1485 1485 1485 1486
1513 1514 1515 1516 1516 1516 1516 1514 1514 1513 1513 1512 1511 1511 1510 1509 1508 1507 1508 1508 1507 1511 1503 1498 1498 1498 1498 1497 1498 1501 1504 1506 1504 1499 1497 1494 1494 1494 1486 1485 1475 1479 1481 1479 1468 1483 1482 1485 1486 1486 1487 1487 1487 1488
1507 1509 1511 1512 1512 1513 1512 1512 1511 1511 1510 1510 1509 1509 1508 1507 1507 1507 1510 1509 1508 1507 1508 1494 1497 1498 1498 1497 1499 1501 1503 1505 1505 1499 1495 1496 1498 1497 1485 1476 1484 1487 1488 1488 1484 1486 1486 1486 1486 1487 1487 1488 1488 1489
1501 1504 1506 1507 1509 1509 1509 1508 1508 1508 1508 1508 1508 1507 1507 1506 1506 1510 1510 1510 1507 1507 1507 1497 1491 1497 1497 1497 1499 1500 1501 1502 1502 1499 1496 1493 1495 1496 1487 1482 1488 1490 1489 1488 1488 1487 1485 1486 1486 1488 1488 1487 1488 1490
1495 1499 1501 1503 1505 1506 1506 1506 1506 1506 1506 1506 1506 1506 1506 1506 1507 1508 1508 1507 1507 1508 1507 1499 1490 1493 1495 1492 1494 1497 1498 1499 1498 1494 1492 1492 1490 1492 1485 1483 1486 1489 1489 1488 1489 1488 1487 1487 1487 1488 1488 1489 1489 1489
1490 1494 1497 1500 1502 1503 1503 1503 1504 1504 1504 1504 1505 1506 1506 1507 1508 1507 1507 1506 1506 1510 1504 1500 1486 1487 1492 1490 1492 1495 1494 1490 1490 1490 1487 1487 1483 1482 1481 1484 1488 1489 1489 1489 1488 1487 1486 1487 1487 1488 1488 1488 1488 1490
1485 1489 1493 1496 1499 1500 1501 1501 1502 1502 1502 1504 1506 1507 1506 1507 1506 1507 1508 1508 1507 1506 1505 1497 1494 1486 1491 1488 1488 1490 1492 1488 1485 1479 1481 1482 1477 1477 1481 1486 1488 1488 1488 1487 1487 1485 1484 1486 1486 1487 1487 1488 1488 1489
1480 1485 1489 1492 1495 1497 1499 1499 1500 1501 1502 1504 1506 1506 1506 1506 1507 1508 1507 1505 1502 1502 1497 1494 1493 1490 1492 1490 1487 1489 1484 1485 1482 1478 1478 1472 1467 1472 1481 1485 1486 1485 1485 1485 1485 1485 1486 1486 1486 1486 1486 1487 1487 1489
1476 1482 1486 1490 1493 1495 1497 1498 1499 1500 1501 1503 1504 1505 1506 1507 1506 1506 1501 1499 1497 1491 1491 1490 1492 1492 1491 1492 1489 1489 1485 1483 1477 1479 1478 1468 1472 1479 1483 1483 1483 1483 1482 1482 1482 1481 1481 1481 1484 1484 1484 1485 1486 1487
1474 1479 1484 1488 1491 1493 1495 1496 1497 1499 1500 1502 1504 1506 1504 1504 1504 1496 1489 1489 1491 1492 1493 1492 1490 1491 1492 1491 1488 1486 1484 1476 1476 1475 1467 1476 1481 1482 1482 1481 1480 1479 1479 1478 1477 1478 1477 1477 1479 1480 1481 1482 1483 1485
1473 1478 1483 1486 1489 1492 1494 1495 1497 1498 1501 1503 1503 1504 1497 1494 1490 1487 1491 1494 1496 1494 1493 1492 1489 1489 1488 1488 1483 1484 1478 1476 1474 1467 1472 1483 1483 1482 1481 1479 1478 1476 1474 1473 1472 1472 1472 1473 1474 1475 1476 1478 1480 1482
1473 1478 1482 1486 1489 1491 1493 1495 1496 1498 1501 1501 1500 1498 1491 1489 1491 1491 1492 1492 1493 1493 1491 1489 1489 1489 1484 1485 1482 1481 1478 1474 1479 1481 1484 1481 1479 1478 1476 1474 1473 1471 1469 1467 1466 1466 1466 1467 1469 1471 1473 1475 1477 1479
1475 1479 1483 1486 1488 1491 1493 1495 1496 1498 1499 1499 1498 1493 1491 1490 1491 1491 1491 1491 1492 1492 1491 1490 1487 1487 1485 1483 1480 1473 1474 1477 1483 1485 1481 1478 1477 1473 1470 1468 1467 1465 1463 1462 1460 1460 1462 1464 1466 1468 1469 1471 1473 1477
1477 1481 1482 1486 1489 1491 1493 1495 1497 1498 1498 1497 1492 1493 1492 1490 1489 1491 1492 1493 1492 1491 1489 1487 1487 1485 1484 1480 1478 1472 1475 1481 1482 1481 1479 1476 1471 1466 1464 1463 1462 1461 1459 1458 1457 1458 1459 1461 1464 1465 1467 1470 1473 1477
1480 1481 1484 1487 1490 1492 1495 1495 1497 1497 1494 1492 1490 1494 1493 1492 1492 1492 1493 1494 1493 1492 1491 1488 1490 1484 1478 1478 1476 1479 1479 1480 1479 1477 1475 1469 1465 1461 1459 1457 1459 1458 1457 1457 1459 1460 1461 1463 1465 1466 1469 1472 1474 1478
1481 1484 1487 1489 1491 1494 1496 1496 1496 1493 1493 1494 1494 1494 1494 1494 1494 1494 1494 1495 1494 1494 1494 1492 1487 1480 1479 1478 1479 1479 1479 1479 1477 1474 1470 1467 1464 1461 1459 1459 1459 1459 1459 1461 1462 1464 1466 1467 1467 1471 1475 1476 1478 1482
1485 1488 1490 1491 1493 1495 1496 1496 1494 1494 1490 1493 1494 1493 1493 1493 1494 1494 1494 1494 1493 1492 1491 1488 1487 1484 1484 1483 1484 1482 1480 1476 1473 1471 1469 1467 1464 1463 1462 1462 1463 1464 1466 1466 1467 1468 1471 1472 1474 1476 1478 1479 1483 1485
1489 1491 1492 1492 1494 1495 1496 1495 1494 1494 1493 1492 1493 1493 1492 1493 1494 1494 1494 1493 1491 1489 1487 1487 1486 1485 1484 1483 1481 1478 1476 1474 1472 1471 1470 1470 1468 1467 1466 1467 1468 1469 1470 1470 1472 1473 1473 1475 1478 1480 1482 1487 1490 1492
1492 1493 1494 1494 1495 1495 1496 1495 1495 1494 1494 1493 1493 1494 1493 1494 1494 1494 1493 1491 1489 1487 1486 1485 1483 1481 1479 1478 1476 1476 1475 1474 1473 1473 1473 1473 1472 1472 1473 1473 1474 1475 1477 1479 1480 1480 1482 1484 1486 1489 1491 1494 1497 1499
1494 1494 1495 1495 1496 1496 1497 1495 1495 1494 1492 1494 1495 1494 1495 1495 1494 1493 1492 1490 1487 1484 1482 1480 1479 1478 1478 1479 1478 1478 1477 1477 1477 1477 1477 1478 1479 1479 1481 1483 1484 1484 1485 1488 1489 1490 1491 1493 1495 1496 1499 1501 1503 1506
1495 1496 1496 1495 1495 1495 1496 1495 1496 1496 1496 1495 1495 1494 1495 1494 1494 1492 1491 1489 1486 1482 1481 1482 1481 1481 1481 1480 1480 1481 1481 1481 1482 1483 1484 1485 1486 1488 1488 1489 1491 1493 1494 1495 1496 1498 1500 1501 1503 1505 1506 1508 1511 1513
1497 1497 1497 1496 1495 1495 1496 1496 1496 1496 1495 1495 1495 1495 1495 1494 1494 1494 1492 1490 1486 1485 1484 1485 1484 1484 1484 1484 1485 1486 1487 1489 1490 1490 1492 1495 1496 1496 1497 1498 1499 1500 1501 1502 1503 1505 1507 1508 1509 1511 1513 1515 1517 1518
1495 1495 1496 1494 1496 1496 1496 1495 1495 1494 1494 1494 1494 1494 1493 1494 1496 1497 1495 1492 1490 1490 1490 1490 1490 1490 1491 1493 1493 1495 1496 1497 1498 1498 1500 1501 1503 1504 1504 1505 1506 1507 1508 1510 1511 1512 1513 1514 1515 1516 1518 1519 1520 1521
1494 1494 1494 1494 1495 1495 1495 1495 1494 1494 1492 1494 1495 1493 1491 1496 1500 1497 1495 1495 1495 1496 1497 1497 1497 1498 1498 1500 1501 1502 1503 1504 1505 1506 1506 1508 1509 1511 1511 1512 1512 1514 1514 1515 1516 1516 1517 1518 1519 1520 1521 1522 1523 1524
1493 1493 1493 1494 1494 1494 1493 1493 1492 1492 1494 1496 1496 1492 1490 1498 1502 1500 1500 1502 1502 1502 1502 1503 1503 1505 1506 1507 1507 1508 1510 1511 1511 1513 1514 1514 1515 1515 1516 1516 1516 1517 1518 1519 1520 1521 1521 1522 1522 1523 1524 1525 1525 1526
1492 1493 1493 1493 1493 1493 1492 1491 1492 1496 1496 1496 1493 1493 1498 1503 1505 1506 1507 1507 1508 1509 1509 1510 1510 1510 1511 1512 1514 1515 1515 1516 1516 1517 1517 1518 1519 1520 1520 1521 1522 1522 1522 1522 1522 1523 1523 1524 1525 1525 1525 1525 1524 1524
1493 1492 1493 1491 1491 1494 1495 1494 1496 1498 1498 1498 1499 1502 1504 1506 1507 1508 1509 1511 1512 1513 1513 1514 1515 1515 1516 1516 1517 1518 1519 1519 1520 1520 1520 1521 1523 1523 1524 1524 1524 1525 1525 1525 1524 1524 1524 1524 1524 1524 1525 1525 1525 1524
1491 1492 1493 1495 1495 1497 1498 1499 1500 1501 1502 1502 1504 1505 1508 1510 1512 1512 1513 1514 1515 1516 1517 1517 1518 1519 1519 1519 1520 1521 1522 1523 1523 1523 1524 1524 1525 1525 1525 1525 1525 1525 1525 1525 1525 1525 1525 1525 1525 1524 1524 1524 1523 1523
1496 1497 1496 1498 1500 1502 1501 1502 1503 1504 1506 1507 1508 1509 1510 1512 1513 1515 1515 1516 1516 1517 1518 1518 1519 1521 1521 1522 1522 1522 1523 1524 1525 1526 1526 1526 1526 1526 1526 1526 1526 1525 1525 1525 1524 1524 1524 1524 1524 1523 1523 1522 1521 1520
1503 1504 1504 1503 1504 1505 1505 1506 1507 1508 1509 1510 1510 1510 1511 1512 1514 1516 1517 1517 1518 1518 1519 1520 1521 1522 1522 1523 1523 1523 1524 1524 1525 1525 1526 1526 1526 1526 1526 1526 1524 1524 1524 1524 1523 1523 1522 1522 1522 1521 1520 1520 1519 1519